Reno, NV

8:04 PM PDT on October 18, 2019 (GMT -0700)
Reno-Tahoe International

Weather History for KRNO - September, 2019

Change the Weather History Date:

Saturday, September 21, 2019

  Actual Average Record
Temperature  
Mean Temperature 57 °F 64 °F  
Max Temperature 73 °F 80 °F 93 °F (2015)
Min Temperature 41 °F 47 °F 24 °F (1895)
Degree Days  
Heating Degree Days 8 3  
Month to date heating degree days 63 39  
Since 1 July heating degree days 63 49  
Cooling Degree Days 0 2  
Month to date cooling degree days 102 75  
Year to date cooling degree days 1093 821  
Growing Degree Days 7 (Base 50)    
Moisture  
Dew Point 35 °F    
Average Humidity 45    
Maximum Humidity 73    
Minimum Humidity 23    
Precipitation  
Precipitation 0.00 in 0.02 in 0.13 in (1916)
Month to date precipitation 0.07 0.21  
Year to date precipitation 8.83 4.90  
Snow  
Snow 0.00 in 0.00 in T in (2017)
Month to date snowfall 0.0 0.0  
Since 1 July snowfall 0.0 0.0  
Since 1 September snowfall 0.0 0.0  
Snow Depth 0.00 in    
Sea Level Pressure  
Sea Level Pressure 30.05 in    
Wind  
Wind Speed 3 mph ()    
Max Wind Speed 13 mph    
Max Gust Speed 16 mph    
Visibility 10.0 miles    
Events      
T = Trace of Precipitation, MM = Missing Value Source: Averaged Metar Reports

Daily Weather History Graph

Daily Weather History Graph

Search for Another Location

Airport or City:

Astronomy

Sep. 21, 2019 Rise Set
Actual Time 6:45 AM PDT 6:57 PM PDT
Civil Twilight 6:18 AM PDT 7:24 PM PDT
Nautical Twilight 5:47 AM PDT 7:56 PM PDT
Astronomical Twilight 5:15 AM PDT 8:28 PM PDT
Moon 11:41 PM PDT (9/21) 1:55 PM PDT (9/21)
Length of Visible Light 13h 05m
Length of Day
12h 12m
Waning Gibbous, 53% of the Moon is Illuminated
Sep 21
Waning Gibbous
Sep 21
Last Quarter
Sep 28
New
Oct 5
First Quarter
Oct 13
Full

Hourly Weather History & Observations

Time (PDT) Temp. Windchill Dew Point Humidity Pressure Visibility Wind Dir Wind Speed Gust Speed Precip Events Conditions
12:55 AM 50.0 °F - 35.1 °F 57% 30.06 in 10.0 mi West 3.5 mph - N/A   Clear
1:55 AM 48.9 °F - 35.1 °F 59% 30.07 in 10.0 mi Calm Calm - N/A   Clear
2:55 AM 48.0 °F - 35.1 °F 61% 30.06 in 10.0 mi WNW 3.5 mph - N/A   Clear
3:55 AM 46.0 °F 44.8 °F 35.1 °F 66% 30.06 in 10.0 mi West 3.5 mph - N/A   Clear
4:55 AM 43.0 °F - 34.0 °F 71% 30.09 in 10.0 mi Calm Calm - N/A   Clear
5:55 AM 44.1 °F 40.8 °F 34.0 °F 68% 30.10 in 10.0 mi West 5.8 mph - N/A   Clear
6:55 AM 41.0 °F - 33.1 °F 73% 30.12 in 10.0 mi Calm Calm - N/A   Partly Cloudy
7:55 AM 45.0 °F 43.5 °F 35.1 °F 68% 30.14 in 10.0 mi SSE 3.5 mph - N/A   Partly Cloudy
8:55 AM 48.9 °F - 35.1 °F 59% 30.14 in 10.0 mi Calm Calm - N/A   Partly Cloudy
9:55 AM 54.0 °F - 35.1 °F 49% 30.12 in 10.0 mi Calm Calm - N/A   Partly Cloudy
10:55 AM 60.1 °F - 37.9 °F 44% 30.10 in 10.0 mi SE 3.5 mph - N/A   Partly Cloudy
11:55 AM 64.0 °F - 37.0 °F 37% 30.07 in 10.0 mi West 3.5 mph - N/A   Partly Cloudy
12:55 PM 66.9 °F - 35.1 °F 31% 30.04 in 10.0 mi Variable 3.5 mph - N/A   Partly Cloudy
1:55 PM 71.1 °F - 33.1 °F 25% 30.01 in 10.0 mi South 9.2 mph - N/A   Clear
2:55 PM 72.0 °F - 33.1 °F 24% 30.00 in 10.0 mi ENE 4.6 mph - N/A   Clear
3:55 PM 72.0 °F - 33.1 °F 24% 29.99 in 10.0 mi Variable 3.5 mph - N/A   Clear
4:55 PM 72.0 °F - 32.0 °F 23% 29.98 in 10.0 mi Variable 3.5 mph - N/A   Clear
5:55 PM 72.0 °F - 32.0 °F 23% 29.98 in 10.0 mi NNW 5.8 mph - N/A   Clear
6:55 PM 69.1 °F - 33.1 °F 26% 29.99 in 10.0 mi East 5.8 mph - N/A   Clear
7:55 PM 66.0 °F - 34.0 °F 30% 30.00 in 10.0 mi NNE 5.8 mph - N/A   Clear
8:55 PM 64.9 °F - 33.1 °F 31% 30.01 in 10.0 mi ENE 4.6 mph - N/A   Clear
9:55 PM 59.0 °F - 37.0 °F 44% 30.03 in 10.0 mi West 5.8 mph - N/A   Clear
10:55 PM 57.9 °F - 36.0 °F 44% 30.03 in 10.0 mi West 5.8 mph - N/A   Clear
11:55 PM 55.0 °F - 36.0 °F 49% 30.03 in 10.0 mi West 4.6 mph - N/A   Clear